| time (UTC) | temp F | wind direction | speed MPH | gust MPH | rain 1hr in | rain 24hr in | rain mn in | humidity % | barometer mb |
| 20260504025519 | 52 | 294 | 3.0 | 8.0 | 0.00 | 0.00 | 0.00 | 84 | 1012.8 |
| 20260504025018 | 52 | 280 | 3.0 | 7.0 | 0.00 | 0.00 | 0.00 | 84 | 1012.8 |
| 20260504024517 | 52 | 221 | 4.0 | 7.0 | 0.00 | 0.00 | 0.00 | 83 | 1012.8 |
| 20260504024016 | 53 | 214 | 4.0 | 7.0 | 0.00 | 0.00 | 0.00 | 82 | 1012.8 |
| 20260504023517 | 53 | 219 | 4.0 | 7.0 | 0.00 | 0.00 | 0.00 | 83 | 1012.6 |
| 20260504023017 | 53 | 235 | 4.0 | 7.0 | 0.00 | 0.00 | 0.00 | 82 | 1012.6 |
| 20260504022521 | 53 | 232 | 3.0 | 7.0 | 0.00 | 0.00 | 0.00 | 81 | 1012.6 |
| 20260504022517 | 53 | 227 | 3.0 | 7.0 | 0.00 | 0.00 | 0.00 | 81 | 1012.6 |
| 20260504021517 | 53 | 243 | 4.0 | 7.0 | 0.00 | 0.00 | 0.00 | 82 | 1012.6 |
| 20260504021017 | 52 | 244 | 4.0 | 7.0 | 0.00 | 0.00 | 0.00 | 83 | 1012.5 |
| 20260504020521 | 52 | 205 | 4.0 | 5.0 | 0.00 | 0.00 | 0.00 | 84 | 1012.6 |
| 20260504020517 | 52 | 241 | 4.0 | 6.0 | 0.00 | 0.00 | 0.00 | 83 | 1012.5 |
| 20260504015520 | 52 | 207 | 6.0 | 9.0 | 0.00 | 0.00 | 0.00 | 85 | 1012.4 |
| 20260504015515 | 52 | 205 | 4.0 | 6.0 | 0.00 | 0.00 | 0.00 | 85 | 1012.6 |
| 20260504015015 | 52 | 205 | 5.0 | 9.0 | 0.00 | 0.00 | 0.00 | 85 | 1012.7 |
| 20260504014014 | 52 | 240 | 6.0 | 8.0 | 0.00 | 0.00 | 0.00 | 86 | 1012.4 |
| 20260504013515 | 52 | 218 | 7.0 | 9.0 | 0.00 | 0.00 | 0.00 | 86 | 1012.3 |
| 20260504013013 | 52 | 204 | 8.0 | 12.0 | 0.00 | 0.00 | 0.00 | 85 | 1012.3 |
| 20260504012513 | 52 | 196 | 9.0 | 12.0 | 0.00 | 0.00 | 0.00 | 85 | 1012.4 |
| 20260504012013 | 52 | 186 | 8.0 | 15.0 | 0.00 | 0.00 | 0.00 | 84 | 1012.5 |
| 20260504011512 | 52 | 184 | 8.0 | 15.0 | 0.00 | 0.00 | 0.00 | 85 | 1012.4 |
| 20260504011012 | 52 | 227 | 10.0 | 15.0 | 0.00 | 0.00 | 0.00 | 86 | 1012.2 |
| 20260504010510 | 53 | 207 | 11.0 | 15.0 | 0.00 | 0.00 | 0.00 | 86 | 1012.3 |
| 20260504010011 | 53 | 189 | 11.0 | 14.0 | 0.00 | 0.00 | 0.00 | 85 | 1012.4 |
| 20260504005511 | 53 | 188 | 10.0 | 16.0 | 0.00 | 0.00 | 0.00 | 84 | 1012.2 |
| 20260504005015 | 54 | 191 | 9.0 | 15.0 | 0.00 | 0.00 | 0.00 | 85 | 1012.3 |
| 20260504005011 | 54 | 181 | 10.0 | 16.0 | 0.00 | 0.00 | 0.00 | 84 | 1012.3 |
| 20260504004016 | 54 | 161 | 7.0 | 12.0 | 0.00 | 0.00 | 0.00 | 85 | 1012.1 |
| 20260504004011 | 54 | 184 | 7.0 | 13.0 | 0.00 | 0.00 | 0.00 | 84 | 1012.2 |
| 20260504003018 | 53 | 200 | 8.0 | 11.0 | 0.00 | 0.00 | 0.00 | 86 | 1012.2 |
| 20260504003011 | 53 | 205 | 7.0 | 12.0 | 0.00 | 0.00 | 0.00 | 86 | 1012.1 |
| 20260504002511 | 53 | 212 | 8.0 | 12.0 | 0.00 | 0.00 | 0.00 | 86 | 1012.2 |
| 20260504001511 | 53 | 205 | 8.0 | 12.0 | 0.00 | 0.00 | 0.00 | 86 | 1012.2 |
| 20260504001011 | 53 | 175 | 8.0 | 12.0 | 0.00 | 0.00 | 0.00 | 87 | 1012.2 |
| 20260504000511 | 53 | 194 | 7.0 | 11.0 | 0.00 | 0.00 | 0.00 | 86 | 1012.2 |
| 20260504000011 | 53 | 195 | 8.0 | 11.0 | 0.00 | 0.00 | 0.00 | 86 | 1012.2 |
| 20260503235511 | 53 | 213 | 8.0 | 11.0 | 0.00 | 0.00 | 0.00 | 85 | 1012.1 |
| 20260503235011 | 53 | 192 | 9.0 | 12.0 | 0.00 | 0.00 | 0.00 | 85 | 1012.1 |
| 20260503234511 | 53 | 200 | 8.0 | 12.0 | 0.00 | 0.00 | 0.00 | 86 | 1012.1 |
| 20260503234011 | 53 | 183 | 8.0 | 12.0 | 0.00 | 0.00 | 0.00 | 86 | 1012.1 |
| 20260503233511 | 53 | 185 | 9.0 | 14.0 | 0.00 | 0.00 | 0.00 | 85 | 1012.1 |
| 20260503233011 | 53 | 211 | 9.0 | 14.0 | 0.00 | 0.00 | 0.00 | 85 | 1012.0 |
| 20260503232511 | 53 | 208 | 9.0 | 14.0 | 0.00 | 0.00 | 0.00 | 86 | 1012.1 |
| 20260503232010 | 53 | 213 | 9.0 | 14.0 | 0.00 | 0.00 | 0.00 | 86 | 1012.2 |
| 20260503231511 | 53 | 183 | 9.0 | 13.0 | 0.00 | 0.00 | 0.00 | 86 | 1012.2 |
| 20260503231011 | 53 | 177 | 10.0 | 16.0 | 0.00 | 0.00 | 0.00 | 86 | 1012.2 |
| 20260503230512 | 53 | 184 | 10.0 | 16.0 | 0.00 | 0.00 | 0.00 | 85 | 1012.3 |
| 20260503230012 | 54 | 195 | 9.0 | 15.0 | 0.00 | 0.00 | 0.00 | 84 | 1012.4 |
| 20260503225511 | 54 | 219 | 9.0 | 14.0 | 0.00 | 0.00 | 0.00 | 84 | 1012.3 |
| 20260503225011 | 54 | 186 | 9.0 | 13.0 | 0.00 | 0.00 | 0.00 | 83 | 1012.4 |
| 20260503224515 | 54 | 192 | 8.0 | 12.0 | 0.00 | 0.00 | 0.00 | 81 | 1012.6 |
| 20260503224511 | 54 | 181 | 8.0 | 12.0 | 0.00 | 0.00 | 0.00 | 83 | 1012.4 |
| 20260503223511 | 55 | 195 | 7.0 | 12.0 | 0.00 | 0.00 | 0.00 | 81 | 1012.6 |
| 20260503223011 | 55 | 188 | 7.0 | 13.0 | 0.00 | 0.00 | 0.00 | 81 | 1012.7 |
| 20260503222511 | 55 | 178 | 8.0 | 13.0 | 0.00 | 0.00 | 0.00 | 83 | 1012.7 |
| 20260503222011 | 54 | 178 | 9.0 | 13.0 | 0.00 | 0.00 | 0.00 | 82 | 1012.7 |
| 20260503221511 | 54 | 187 | 7.0 | 13.0 | 0.00 | 0.00 | 0.00 | 83 | 1012.8 |
| 20260503221015 | 53 | 197 | 8.0 | 15.0 | 0.00 | 0.00 | 0.00 | 84 | 1012.8 |
| 20260503221011 | 54 | 214 | 7.0 | 13.0 | 0.00 | 0.00 | 0.00 | 84 | 1012.9 |
| 20260503220009 | 54 | 194 | 8.0 | 15.0 | 0.00 | 0.00 | 0.00 | 84 | 1012.9 |
| 20260503215507 | 54 | 211 | 9.0 | 16.0 | 0.00 | 0.00 | 0.00 | 84 | 1012.8 |
| 20260503215006 | 54 | 180 | 11.0 | 16.0 | 0.00 | 0.00 | 0.00 | 84 | 1012.9 |
| 20260503214506 | 54 | 202 | 10.0 | 16.0 | 0.00 | 0.00 | 0.00 | 83 | 1013.0 |
| 20260503214006 | 54 | 192 | 9.0 | 16.0 | 0.00 | 0.00 | 0.00 | 84 | 1013.0 |
| 20260503213506 | 54 | 194 | 10.0 | 16.0 | 0.00 | 0.00 | 0.00 | 85 | 1013.0 |
| 20260503213005 | 53 | 193 | 11.0 | 16.0 | 0.00 | 0.00 | 0.00 | 84 | 1012.9 |
| 20260503212504 | 53 | 199 | 10.0 | 16.0 | 0.00 | 0.00 | 0.00 | 84 | 1013.0 |
| 20260503212008 | 54 | 194 | 11.0 | 16.0 | 0.00 | 0.00 | 0.00 | 85 | 1013.0 |
| 20260503212004 | 54 | 205 | 10.0 | 16.0 | 0.00 | 0.00 | 0.00 | 84 | 1012.9 |
| 20260503211614 | 53 | 175 | 12.0 | 17.0 | 0.00 | 0.00 | 0.00 | 85 | 1013.0 |
| 20260503210505 | 53 | 194 | 12.0 | 17.0 | 0.00 | 0.00 | 0.00 | 86 | 1013.0 |
| 20260503210005 | 53 | 198 | 12.0 | 18.0 | 0.00 | 0.00 | 0.00 | 87 | 1013.0 |
| 20260503205508 | 53 | 186 | 13.0 | 18.0 | 0.00 | 0.00 | 0.00 | 86 | 1013.0 |
| 20260503205504 | 53 | 198 | 12.0 | 18.0 | 0.00 | 0.00 | 0.00 | 84 | 1013.0 |
| 20260503204504 | 53 | 190 | 13.0 | 18.0 | 0.00 | 0.00 | 0.00 | 86 | 1013.0 |
| 20260503204004 | 53 | 196 | 12.0 | 18.0 | 0.00 | 0.00 | 0.00 | 85 | 1013.0 |
| 20260503203502 | 54 | 191 | 11.0 | 17.0 | 0.00 | 0.00 | 0.00 | 82 | 1013.1 |
| 20260503203002 | 54 | 193 | 10.0 | 16.0 | 0.00 | 0.00 | 0.00 | 83 | 1013.2 |
| 20260503202506 | 55 | 205 | 8.0 | 16.0 | 0.00 | 0.00 | 0.00 | 82 | 1013.0 |
| 20260503202502 | 55 | 179 | 9.0 | 16.0 | 0.00 | 0.00 | 0.00 | 83 | 1013.0 |
| 20260503202111 | 55 | 190 | 9.0 | 16.0 | 0.00 | 0.00 | 0.00 | 82 | 1013.0 |
| 20260503201002 | 55 | 200 | 9.0 | 15.0 | 0.00 | 0.00 | 0.00 | 82 | 1013.0 |
| 20260503200502 | 55 | 200 | 8.0 | 14.0 | 0.00 | 0.00 | 0.00 | 84 | 1013.4 |
| 20260503200002 | 55 | 184 | 7.0 | 14.0 | 0.00 | 0.00 | 0.00 | 82 | 1013.2 |
| 20260503195501 | 55 | 192 | 7.0 | 14.0 | 0.00 | 0.00 | 0.00 | 85 | 1013.2 |
| 20260503195001 | 55 | 182 | 8.0 | 13.0 | 0.00 | 0.00 | 0.00 | 85 | 1013.2 |
| 20260503194500 | 54 | 151 | 8.0 | 15.0 | 0.00 | 0.00 | 0.00 | 87 | 1013.4 |
| 20260503194000 | 54 | 140 | 8.0 | 16.0 | 0.00 | 0.00 | 0.00 | 85 | 1013.5 |
| 20260503193500 | 54 | 176 | 8.0 | 16.0 | 0.00 | 0.00 | 0.00 | 86 | 1013.4 |
| 20260503193000 | 54 | 169 | 8.0 | 14.0 | 0.00 | 0.00 | 0.00 | 86 | 1013.4 |
| 20260503192459 | 54 | 187 | 8.0 | 13.0 | 0.00 | 0.00 | 0.00 | 87 | 1013.4 |
| 20260503192000 | 53 | 190 | 9.0 | 15.0 | 0.00 | 0.00 | 0.00 | 88 | 1013.4 |
| 20260503191500 | 54 | 151 | 8.0 | 15.0 | 0.00 | 0.00 | 0.00 | 90 | 1013.4 |
| 20260503190959 | 54 | 165 | 8.0 | 17.0 | 0.00 | 0.00 | 0.00 | 92 | 1013.4 |
| 20260503190500 | 53 | 161 | 8.0 | 17.0 | 0.00 | 0.00 | 0.00 | 94 | 1013.5 |
| 20260503185957 | 53 | 184 | 8.0 | 16.0 | 0.00 | 0.00 | 0.00 | 95 | 1013.6 |
| 20260503185457 | 52 | 195 | 8.0 | 16.0 | 0.00 | 0.00 | 0.00 | 96 | 1013.6 |
| 20260503185001 | 51 | 180 | 9.0 | 17.0 | 0.00 | 0.00 | 0.00 | 96 | 1013.6 |
| 20260503184957 | 51 | 152 | 9.0 | 16.0 | 0.00 | 0.00 | 0.00 | 96 | 1013.6 |
| 20260503184607 | 51 | 173 | 8.0 | 17.0 | 0.00 | 0.00 | 0.00 | 97 | 1013.6 |
| 20260503183458 | 51 | 155 | 8.0 | 14.0 | 0.00 | 0.00 | 0.00 | 97 | 1013.6 |
| 20260503182958 | 51 | 178 | 7.0 | 14.0 | 0.00 | 0.00 | 0.00 | 97 | 1013.7 |
| 20260503182458 | 51 | 162 | 7.0 | 14.0 | 0.00 | 0.00 | 0.00 | 97 | 1013.7 |
| 20260503181957 | 51 | 155 | 7.0 | 14.0 | 0.00 | 0.00 | 0.00 | 98 | 1013.8 |
| 20260503181458 | 51 | 168 | 6.0 | 14.0 | 0.00 | 0.00 | 0.00 | 98 | 1013.7 |
| 20260503180958 | 50 | 136 | 7.0 | 13.0 | 0.00 | 0.00 | 0.00 | 98 | 1013.7 |
| 20260503180458 | 50 | 98 | 7.0 | 14.0 | 0.00 | 0.00 | 0.00 | 98 | 1013.7 |
| 20260503175957 | 50 | 162 | 6.0 | 14.0 | 0.00 | 0.00 | 0.00 | 98 | 1013.7 |
| 20260503175458 | 49 | 175 | 6.0 | 10.0 | 0.00 | 0.00 | 0.00 | 98 | 1013.8 |
| 20260503175002 | 49 | 179 | 5.0 | 10.0 | 0.00 | 0.00 | 0.00 | 98 | 1013.8 |
| 20260503174958 | 49 | 188 | 6.0 | 10.0 | 0.00 | 0.00 | 0.00 | 98 | 1013.9 |
| 20260503173958 | 49 | 171 | 6.0 | 10.0 | 0.00 | 0.00 | 0.00 | 98 | 1013.9 |
| 20260503173458 | 49 | 171 | 7.0 | 10.0 | 0.00 | 0.00 | 0.00 | 98 | 1014.0 |
| 20260503172957 | 49 | 192 | 7.0 | 10.0 | 0.00 | 0.00 | 0.00 | 98 | 1013.9 |
| 20260503172457 | 49 | 189 | 8.0 | 11.0 | 0.00 | 0.00 | 0.00 | 98 | 1013.9 |
| 20260503171957 | 49 | 184 | 9.0 | 11.0 | 0.00 | 0.00 | 0.00 | 98 | 1013.9 |
| 20260503171458 | 49 | 188 | 9.0 | 12.0 | 0.00 | 0.00 | 0.00 | 98 | 1013.8 |
| 20260503170957 | 48 | 197 | 9.0 | 12.0 | 0.00 | 0.00 | 0.00 | 98 | 1013.7 |
| 20260503170457 | 49 | 192 | 8.0 | 11.0 | 0.00 | 0.00 | 0.00 | 98 | 1013.6 |
| 20260503150455 | 49 | 165 | 9.0 | 13.0 | 0.00 | 0.00 | 0.00 | 98 | 1012.7 |
| 20260503150449 | 49 | 171 | 9.0 | 11.0 | 0.00 | 0.00 | 0.00 | 98 | 1012.7 |
| 20260503130448 | 49 | 103 | 5.0 | 10.0 | 0.00 | 0.00 | 0.00 | 97 | 1011.6 |
| 20260503130444 | 49 | 98 | 6.0 | 10.0 | 0.00 | 0.00 | 0.00 | 97 | 1011.6 |
| 20260503110443 | 49 | 107 | 5.0 | 9.0 | 0.00 | 0.00 | 0.00 | 97 | 1012.0 |
| 20260503090432 | 50 | 153 | 2.0 | 10.0 | 0.00 | 0.00 | 0.00 | 96 | 1012.2 |
| 20260503081431 | 51 | 189 | 6.0 | 10.0 | 0.00 | 0.00 | 0.00 | 96 | 1012.3 |
| 20260503080928 | 51 | 188 | 6.0 | 10.0 | 0.00 | 0.00 | 0.00 | 95 | 1012.3 |
| 20260503080428 | 51 | 180 | 7.0 | 10.0 | 0.00 | 0.00 | 0.00 | 96 | 1012.3 |
| 20260503072423 | 52 | 204 | 6.0 | 8.0 | 0.00 | 0.00 | 0.00 | 93 | 1012.3 |
| 20260503071923 | 53 | 209 | 4.0 | 7.0 | 0.00 | 0.00 | 0.00 | 92 | 1012.3 |
| 20260503071424 | 54 | 211 | 2.0 | 8.0 | 0.00 | 0.00 | 0.00 | 91 | 1012.3 |
| 20260503070921 | 56 | 13 | 2.0 | 8.0 | 0.00 | 0.00 | 0.00 | 92 | 1012.2 |
| 20260503070422 | 56 | 20 | 5.0 | 8.0 | 0.00 | 0.00 | 0.00 | 91 | 1012.1 |
| 20260503054421 | 62 | 5 | 1.0 | 3.0 | 0.00 | 0.00 | 0.00 | 77 | 1012.2 |
| 20260503053921 | 62 | 22 | 0.0 | 2.0 | 0.00 | 0.00 | 0.00 | 76 | 1012.3 |
| 20260503053422 | 62 | 115 | 0.0 | 1.0 | 0.00 | 0.00 | 0.00 | 71 | 1012.3 |
| 20260503052922 | 62 | 125 | 0.0 | 1.0 | 0.00 | 0.00 | 0.00 | 70 | 1012.5 |
| 20260503052421 | 62 | 15 | 0.0 | 2.0 | 0.00 | 0.00 | 0.00 | 70 | 1012.5 |
| 20260503051921 | 63 | 5 | 1.0 | 2.0 | 0.00 | 0.00 | 0.00 | 71 | 1012.4 |
| 20260503051424 | 65 | 58 | 0.0 | 2.0 | 0.00 | 0.00 | 0.00 | 61 | 1012.4 |
| 20260503051420 | 64 | 30 | 0.0 | 2.0 | 0.00 | 0.00 | 0.00 | 68 | 1012.3 |
| 20260503050419 | 65 | 89 | 0.0 | 2.0 | 0.00 | 0.00 | 0.00 | 52 | 1012.4 |
| 20260503045919 | 65 | 123 | 0.0 | 2.0 | 0.00 | 0.00 | 0.00 | 45 | 1012.3 |
| 20260503045419 | 65 | 123 | 1.0 | 2.0 | 0.00 | 0.00 | 0.00 | 42 | 1012.3 |
| 20260503044924 | 65 | 126 | 0.0 | 2.0 | 0.00 | 0.00 | 0.00 | 36 | 1012.3 |
| 20260503044919 | 65 | 86 | 0.0 | 2.0 | 0.00 | 0.00 | 0.00 | 39 | 1012.3 |
| 20260503043917 | 65 | 227 | 1.0 | 2.0 | 0.00 | 0.00 | 0.00 | 40 | 1012.2 |
| 20260503043422 | 65 | 226 | 2.0 | 3.0 | 0.00 | 0.00 | 0.00 | 44 | 1012.1 |
| 20260503043418 | 65 | 226 | 1.0 | 3.0 | 0.00 | 0.00 | 0.00 | 41 | 1012.2 |
| 20260503042417 | 65 | 226 | 2.0 | 4.0 | 0.00 | 0.00 | 0.00 | 42 | 1012.1 |
| 20260503041917 | 66 | 225 | 3.0 | 4.0 | 0.00 | 0.00 | 0.00 | 42 | 1012.0 |
| 20260503041415 | 66 | 224 | 3.0 | 5.0 | 0.00 | 0.00 | 0.00 | 41 | 1012.0 |
| 20260503040919 | 66 | 221 | 5.0 | 6.0 | 0.00 | 0.00 | 0.00 | 41 | 1011.7 |
| 20260503040915 | 66 | 223 | 4.0 | 5.0 | 0.00 | 0.00 | 0.00 | 41 | 1011.9 |
| 20260503035915 | 66 | 217 | 5.0 | 6.0 | 0.00 | 0.00 | 0.00 | 42 | 1011.7 |
| 20260503035419 | 66 | 219 | 2.0 | 5.0 | 0.00 | 0.00 | 0.00 | 40 | 1011.5 |
| 20260503035415 | 66 | 222 | 5.0 | 6.0 | 0.00 | 0.00 | 0.00 | 39 | 1011.5 |
| 20260503034913 | 66 | 224 | 4.0 | 6.0 | 0.00 | 0.00 | 0.00 | 42 | 1011.5 |
| 20260503033913 | 67 | 215 | 4.0 | 7.0 | 0.00 | 0.00 | 0.00 | 43 | 1011.5 |
| 20260503033415 | 67 | 226 | 5.0 | 7.0 | 0.00 | 0.00 | 0.00 | 34 | 1011.3 |
| 20260503033411 | 67 | 216 | 5.0 | 7.0 | 0.00 | 0.00 | 0.00 | 38 | 1011.4 |
| 20260503032411 | 67 | 227 | 6.0 | 9.0 | 0.00 | 0.00 | 0.00 | 34 | 1011.2 |
| 20260503031915 | 67 | 234 | 8.0 | 10.0 | 0.00 | 0.00 | 0.00 | 40 | 1011.1 |
| 20260503031911 | 67 | 236 | 7.0 | 9.0 | 0.00 | 0.00 | 0.00 | 38 | 1011.1 |
| 20260503030911 | 67 | 227 | 8.0 | 10.0 | 0.00 | 0.00 | 0.00 | 39 | 1011.0 |
| 20260503030411 | 66 | 232 | 9.0 | 11.0 | 0.00 | 0.00 | 0.00 | 44 | 1011.0 |
| 20260503025911 | 65 | 237 | 9.0 | 11.0 | 0.00 | 0.00 | 0.00 | 48 | 1010.9 |